This is the latest recevied weather packets stored in our database for station/object DB0MOD. If no packets are shown the sender has not sent any weather packets the latest 10 day(s).
| Time | Temp. | Humidity | Pressure | Rain* | Wind** | Luminosity | Snow |
|---|---|---|---|---|---|---|---|
| 1778239434 | 18.89° C | 39% | 1016.5 hPa | 0 mm | - | - | - |
| 1778239134 | 19.44° C | 38% | 1016.4 hPa | 0 mm | - | - | - |
| 1778238834 | 19.44° C | 38% | 1016.5 hPa | 0 mm | - | - | - |
| 1778238534 | 19.44° C | 38% | 1016.6 hPa | 0 mm | - | - | - |
| 1778238234 | 19.44° C | 38% | 1016.4 hPa | 0 mm | - | - | - |
| 1778237634 | 20° C | 41% | 1016.4 hPa | 0 mm | - | - | - |
| 1778237334 | 20.56° C | 41% | 1016.5 hPa | 0 mm | - | - | - |
| 1778237034 | 20.56° C | 40% | 1016.4 hPa | 0 mm | - | - | - |
| 1778236735 | 20.56° C | 40% | 1016.5 hPa | 0 mm | - | - | - |
| 1778236434 | 20.56° C | 39% | 1016.4 hPa | 0 mm | - | - | - |
| 1778236134 | 20.56° C | 38% | 1016.4 hPa | 0 mm | - | - | - |
| 1778235834 | 20.56° C | 36% | 1016.3 hPa | 0 mm | - | - | - |
| 1778235534 | 20.56° C | 38% | 1016.2 hPa | 0 mm | - | - | - |
| 1778235234 | 20.56° C | 38% | 1016.1 hPa | 0 mm | - | - | - |
| 1778234934 | 21.11° C | 40% | 1016.1 hPa | 0 mm | - | - | - |
| 1778234634 | 21.67° C | 39% | 1016 hPa | 0 mm | - | - | - |
| 1778234334 | 21.67° C | 36% | 1016.1 hPa | 0 mm | - | - | - |
| 1778234034 | 21.11° C | 35% | 1016 hPa | 0 mm | - | - | - |
| 1778233734 | 21.11° C | 36% | 1016 hPa | 0 mm | - | - | - |
| 1778233434 | 21.11° C | 34% | 1015.9 hPa | 0 mm | - | - | - |
| 1778233134 | 20.56° C | 33% | 1015.8 hPa | 0 mm | - | - | - |
| 1778232834 | 20.56° C | 27% | 1015.8 hPa | 0 mm | - | - | - |
| 1778232534 | 20° C | 23% | 1015.7 hPa | 0 mm | - | - | - |
| 1778232234 | 19.44° C | 24% | 1015.6 hPa | 0 mm | - | - | - |
| 1778231934 | 19.44° C | 24% | 1015.5 hPa | 0 mm | - | - | - |
* Rain latest hour (hover to see other rain measurements)
** Current wind speed in m/s (hover to see current wind gust speed)